User: anonymous   Login
Location: Gro�wechsungen
(51.4926°N, 10.6901°E)
Time: 07:43:43
(UTC+00:00)
Language:

CARTOSAT-1 - Orbit

View from above orbital plane
View from above orbital plane
View from above satellite
View from above satellite

Ground track
Ground track

The orbit data is extracted from the following two-line orbital elements,

1 28649U 05017A   20336.75678409  .00000286  00000-0  40830-4 0  9997
2 28649  97.7952  41.9177 0000395 164.6685 195.4541 14.83733898843291
Epoch (UTC): 01 December 2020 18:09:46
Eccentricity: 0.0000395
inclination: 97.7952°
perigee height: 617 km
apogee height: 618 km
right ascension of ascending node: 41.9177°
argument of perigee: 164.6685°
revolutions per day: 14.83733898
mean anomaly at epoch: 195.4541°
orbit number at epoch: 84329

The dashed part of the orbit path shows where the satellite is in the earth's shadow,  

DLR